Date String (YYYY-MM-DD hh:mm:ss) UTC,Instrument flags,absolute air pressure of the measurement (hPa),sample flow rate (lpm),inlet stack bypass flow (lpm),air temperature of the measurement (°C),ambient temperature measured by the external sensor (°C),aerosol sample conditioner tube jacket temperature (°C),OPC LED temperature (°C),internal box temperature (°C),relative humidity of the measurement (%),span deviation,mass concentration of particles derived from Lorenz-Mie calculation of OPC scattering (μg/m³),mass concentration of particles derived from Lorenz-Mie calculation of OPC scattering (μg/m³),mass concentration of particles derived from Lorenz-Mie calculation of OPC scattering (μg/m³)
DateTimeUTC,F1_M11,P_M11,Q1_M11,Q2_M11,T1_M11,T2_M11,T3_M11,T4_M11,T5_M11,U1_M11,ZSPAN_M11,X0_M11,X2_M11,X1_M11
2023-08-09 08:00:00,SystemResetWarning,0830.9,5.01,000.00,029.7,028.5,000.0,038.3,031.3,26.2,0000.3,0011.01,0005.29,0004.53
2023-08-09 08:01:00,SystemResetWarning,0830.8,5.00,000.00,029.7,028.6,000.0,038.3,031.4,26.2,0000.7,0012.47,0005.34,0004.54
2023-08-09 08:02:00,SystemResetWarning,0830.8,5.00,000.00,029.8,028.6,000.0,038.3,031.4,26.1,-000.3,0011.82,0005.34,0004.55
2023-08-09 08:03:00,SystemResetWarning,0830.8,5.00,000.00,029.8,028.6,000.0,038.3,031.4,26.0,-000.2,0012.20,0005.37,0004.55
2023-08-09 08:04:00,SystemResetWarning,0830.8,5.00,000.00,029.8,028.6,000.0,038.3,031.4,26.0,0000.3,0012.67,0005.35,0004.54
2023-08-09 08:05:00,SystemResetWarning,0830.8,5.00,000.00,029.8,028.6,000.0,038.3,031.4,25.9,-000.3,0012.44,0005.32,0004.54
2023-08-09 08:06:00,SystemResetWarning,0830.7,5.00,000.00,029.8,028.6,000.0,038.4,031.4,25.9,-000.9,0011.97,0005.28,0004.53
2023-08-09 08:07:00,SystemResetWarning,0830.7,5.00,000.00,029.8,028.6,000.0,038.4,031.4,25.8,-001.0,0011.17,0005.20,0004.51
2023-08-09 08:08:00,SystemResetWarning,0830.7,4.99,000.00,029.8,028.6,000.0,038.4,031.4,25.8,-001.1,0011.13,0005.19,0004.50
2023-08-09 08:09:00,SystemResetWarning,0830.7,5.00,000.00,029.8,028.6,000.0,038.4,031.4,25.8,-000.7,0010.92,0005.16,0004.49
2023-08-09 08:10:00,SystemResetWarning,0830.7,4.99,000.00,029.8,028.6,000.0,038.4,031.4,25.8,-001.0,0010.99,0005.14,0004.48
2023-08-09 08:11:00,SystemResetWarning,0830.7,5.00,000.00,029.8,028.6,000.0,038.4,031.4,25.8,-000.6,0011.47,0005.13,0004.46
2023-08-09 08:12:00,SystemResetWarning,0830.7,5.00,000.00,029.9,028.6,000.0,038.4,031.4,25.6,-000.1,0009.87,0005.07,0004.43
2023-08-09 08:13:00,SystemResetWarning,0830.7,5.00,000.00,029.9,027.5,000.0,038.4,031.3,25.6,0000.0,0009.99,0005.05,0004.41
2023-08-09 08:14:00,SystemResetWarning,0830.6,5.00,000.00,029.8,025.7,000.0,038.2,031.1,25.6,0000.3,0009.73,0005.01,0004.39
2023-08-09 08:15:00,SystemResetWarning,0830.7,5.01,000.00,029.7,025.2,000.0,038.1,030.8,25.6,0000.1,0009.40,0004.98,0004.37
2023-08-09 08:16:00,SystemResetWarning,0830.7,5.01,000.00,029.5,025.4,000.0,038.1,030.6,25.6,0000.0,0010.33,0004.98,0004.34
2023-08-09 08:17:00,SystemResetWarning,0830.7,5.00,000.00,029.5,025.7,000.0,038.1,030.7,25.7,0000.0,0010.37,0004.99,0004.33
2023-08-09 08:18:00,SystemResetWarning,0830.7,5.00,000.00,029.4,026.2,000.0,038.1,030.8,25.6,0000.0,0010.38,0004.98,0004.31
2023-08-09 08:19:00,SystemResetWarning,0830.7,5.00,000.00,029.4,026.5,000.0,038.1,030.8,25.7,0000.0,0010.32,0004.96,0004.29
2023-08-09 08:20:00,SystemResetWarning,0830.8,5.00,000.00,029.4,026.9,000.0,038.1,030.9,25.6,0000.0,0010.41,0004.97,0004.28
2023-08-09 08:21:00,SystemResetWarning,0830.8,5.00,000.00,029.4,027.1,000.0,038.1,030.9,25.6,0000.0,0010.36,0004.97,0004.28
2023-08-09 08:22:00,SystemResetWarning,0830.8,5.01,000.00,029.4,027.3,000.0,038.1,030.9,25.6,0000.0,0009.85,0004.93,0004.27
2023-08-09 08:23:00,SystemResetWarning,0830.8,5.00,000.00,029.4,027.5,000.0,038.1,031.0,25.5,0000.0,0009.90,0004.94,0004.27
2023-08-09 08:24:00,SystemResetWarning,0830.8,5.00,000.00,029.4,027.6,000.0,038.1,031.0,25.5,0000.0,0009.67,0004.94,0004.27
2023-08-09 08:25:00,SystemResetWarning,0830.7,5.00,000.00,029.4,027.7,000.0,038.1,031.0,25.5,0000.0,0010.22,0004.94,0004.26
2023-08-09 08:26:00,SystemResetWarning,0830.7,5.00,000.00,029.4,027.9,000.0,038.1,031.0,25.4,0000.0,0009.93,0004.92,0004.24
2023-08-09 08:27:00,SystemResetWarning,0830.6,4.99,000.00,029.5,027.9,000.0,038.1,031.0,25.4,0000.0,0009.37,0004.92,0004.25
2023-08-09 08:28:00,SystemResetWarning,0830.6,5.00,000.00,029.5,028.0,000.0,038.1,031.0,25.5,0000.0,0009.46,0004.93,0004.25
2023-08-09 08:29:00,SystemResetWarning,0830.5,5.01,000.00,029.5,028.1,000.0,038.1,031.1,25.5,0000.0,0009.62,0004.96,0004.25
2023-08-09 08:30:00,SystemResetWarning,0830.5,5.00,000.00,029.5,028.1,000.0,038.1,031.1,25.4,0000.0,0010.17,0004.95,0004.24
2023-08-09 08:31:00,SystemResetWarning,0830.5,5.01,000.00,029.5,028.1,000.0,038.1,031.1,25.3,0000.0,0011.03,0004.94,0004.23
2023-08-09 08:32:00,SystemResetWarning,0830.6,5.00,000.00,029.5,028.2,000.0,038.1,031.1,25.3,0000.0,0011.16,0004.90,0004.21
2023-08-09 08:33:00,SystemResetWarning,0830.6,5.00,000.00,029.6,028.2,000.0,038.2,031.2,25.3,0000.0,0011.19,0004.90,0004.21
2023-08-09 08:34:00,SystemResetWarning,0830.6,5.00,000.00,029.6,028.2,000.0,038.2,031.2,25.3,0000.0,0011.20,0004.89,0004.22
2023-08-09 08:35:00,SystemResetWarning,0830.6,5.00,000.00,029.6,028.3,000.0,038.2,031.2,25.3,0000.0,0011.31,0004.90,0004.21
2023-08-09 08:36:00,SystemResetWarning,0830.6,5.00,000.00,029.6,028.3,000.0,038.2,031.2,25.3,0000.0,0010.74,0004.92,0004.22
2023-08-09 08:37:00,SystemResetWarning,0830.6,5.00,000.00,029.6,028.3,000.0,038.2,031.2,25.2,0000.0,0010.79,0004.92,0004.22
2023-08-09 08:38:00,SystemResetWarning,0830.6,5.00,000.00,029.6,028.3,000.0,038.2,031.2,25.2,0000.0,0010.46,0004.90,0004.22
2023-08-09 08:39:00,SystemResetWarning,0830.6,5.00,000.00,029.7,028.3,000.0,038.2,031.3,25.1,0000.0,0010.34,0004.89,0004.22
2023-08-09 08:40:00,SystemResetWarning,0830.6,5.01,000.00,029.7,028.4,000.0,038.3,031.3,25.1,0000.0,0010.26,0004.88,0004.22
2023-08-09 08:41:00,SystemResetWarning,0830.6,5.00,000.00,029.7,028.4,000.0,038.3,031.3,25.1,0000.0,0009.96,0004.88,0004.22
2023-08-09 08:42:00,SystemResetWarning,0830.6,5.00,000.00,029.7,028.4,000.0,038.3,031.3,25.1,0000.0,0009.35,0004.88,0004.22
2023-08-09 08:43:00,SystemResetWarning,0830.6,4.99,000.00,029.7,028.4,000.0,038.3,031.3,25.1,0000.0,0009.16,0004.88,0004.22
2023-08-09 08:44:00,SystemResetWarning,0830.6,5.00,000.00,029.7,028.4,000.0,038.3,031.3,25.0,0000.0,0009.28,0004.92,0004.22
2023-08-09 08:45:00,SystemResetWarning,0830.6,5.00,000.00,029.7,028.5,000.0,038.3,031.3,25.0,0000.0,0009.78,0004.93,0004.21
2023-08-09 08:46:00,SystemResetWarning,0830.6,5.00,000.00,029.8,028.5,000.0,038.3,031.4,25.0,0000.0,0009.76,0004.92,0004.21
2023-08-09 08:47:00,SystemResetWarning,0830.6,5.00,000.00,029.8,028.5,000.0,038.4,031.4,25.0,0000.0,0009.43,0004.85,0004.20
2023-08-09 08:48:00,SystemResetWarning,0830.5,5.00,000.00,029.8,028.5,000.0,038.4,031.4,25.0,0000.0,0009.38,0004.85,0004.20
2023-08-09 08:49:00,SystemResetWarning,0830.5,5.00,000.00,029.8,028.5,000.0,038.4,031.4,24.9,0000.0,0010.28,0004.89,0004.20
2023-08-09 08:50:00,SystemResetWarning,0830.5,5.00,000.00,029.8,028.5,000.0,038.4,031.4,25.0,0000.0,0010.46,0004.89,0004.22
2023-08-09 08:51:00,SystemResetWarning,0830.6,5.01,000.00,029.8,028.5,000.0,038.4,031.4,24.9,0000.0,0010.45,0004.88,0004.22
2023-08-09 08:52:00,SystemResetWarning,0830.6,5.00,000.00,029.8,028.5,000.0,038.4,031.4,24.9,0000.0,0010.51,0004.89,0004.22
2023-08-09 08:53:00,SystemResetWarning,0830.5,5.01,000.00,029.9,028.5,000.0,038.4,031.4,24.8,0000.0,0010.23,0004.88,0004.24
2023-08-09 08:54:00,SystemResetWarning,0830.5,5.00,000.00,029.9,028.6,000.0,038.5,031.4,24.8,0000.0,0009.82,0004.90,0004.25
2023-08-09 08:55:00,SystemResetWarning,0830.5,5.00,000.00,029.9,028.6,000.0,038.5,031.5,24.7,0000.0,0009.74,0004.89,0004.25
2023-08-09 08:56:00,SystemResetWarning,0830.5,4.99,000.00,029.9,027.8,000.0,038.4,031.4,24.7,0000.0,0009.89,0004.90,0004.25
2023-08-09 08:57:00,SystemResetWarning,0830.5,5.00,000.00,029.8,025.8,000.0,038.3,031.1,24.7,0000.0,0010.07,0004.90,0004.25
2023-08-09 08:58:00,SystemResetWarning,0830.5,5.01,000.00,029.7,025.1,000.0,038.2,030.9,24.7,0000.0,0010.20,0004.89,0004.25
2023-08-09 08:59:00,SystemResetWarning,0830.5,5.00,000.00,029.6,025.2,000.0,038.2,030.6,25.0,0000.0,0010.42,0004.86,0004.24
